| time (UTC) | temp F | wind direction | speed MPH | gust MPH | rain 1hr in | rain 24hr in | rain mn in | humidity % | barometer mb |
| 20260504045612 | 58 | 275 | 1.0 | 1.0 | 0.00 | 0.00 | 0.00 | 68 | 1005.0 |
| 20260504045106 | 58 | 210 | 0.0 | 1.0 | 0.00 | 0.00 | 0.00 | 67 | 1004.9 |
| 20260504044604 | 58 | 235 | 3.0 | 6.0 | 0.00 | 0.00 | 0.00 | 68 | 1005.0 |
| 20260504044101 | 59 | 247 | 2.0 | 2.0 | 0.00 | 0.00 | 0.00 | 67 | 1004.8 |
| 20260504043558 | 58 | 199 | 3.0 | 3.0 | 0.00 | 0.00 | 0.00 | 68 | 1005.3 |
| 20260504043055 | 58 | 242 | 2.0 | 2.0 | 0.00 | 0.00 | 0.00 | 69 | 1005.0 |
| 20260504042552 | 58 | 238 | 0.0 | 0.0 | 0.00 | 0.00 | 0.00 | 68 | 1005.1 |
| 20260504042049 | 58 | 235 | 2.0 | 2.0 | 0.00 | 0.00 | 0.00 | 69 | 1005.1 |
| 20260504041545 | 58 | 242 | 1.0 | 2.0 | 0.00 | 0.00 | 0.00 | 68 | 1005.1 |
| 20260504041041 | 58 | 221 | 0.0 | 1.0 | 0.00 | 0.00 | 0.00 | 69 | 1005.1 |
| 20260504040539 | 58 | 275 | 2.0 | 3.0 | 0.00 | 0.00 | 0.00 | 68 | 1005.1 |
| 20260504040035 | 58 | 215 | 1.0 | 1.0 | 0.00 | 0.00 | 0.00 | 68 | 1005.1 |
| 20260504035532 | 58 | 207 | 2.0 | 2.0 | 0.00 | 0.00 | 0.00 | 68 | 1005.0 |
| 20260504035028 | 59 | 345 | 1.0 | 1.0 | 0.00 | 0.00 | 0.00 | 68 | 1005.1 |
| 20260504034526 | 59 | 285 | 1.0 | 2.0 | 0.00 | 0.00 | 0.00 | 67 | 1005.3 |
| 20260504034023 | 59 | 216 | 1.0 | 1.0 | 0.00 | 0.00 | 0.00 | 67 | 1005.2 |
| 20260504033521 | 58 | 175 | 3.0 | 3.0 | 0.00 | 0.00 | 0.00 | 68 | 1005.2 |
| 20260504033018 | 59 | 210 | 0.0 | 0.0 | 0.00 | 0.00 | 0.00 | 68 | 1005.4 |
| 20260504032515 | 59 | 206 | 0.0 | 0.0 | 0.00 | 0.00 | 0.00 | 67 | 1005.3 |
| 20260504032012 | 59 | 212 | 3.0 | 6.0 | 0.00 | 0.00 | 0.00 | 66 | 1005.4 |
| 20260504031509 | 59 | 215 | 1.0 | 2.0 | 0.00 | 0.00 | 0.00 | 66 | 1005.5 |
| 20260504031005 | 59 | 218 | 2.0 | 2.0 | 0.00 | 0.00 | 0.00 | 66 | 1005.5 |
| 20260504030503 | 59 | 201 | 1.0 | 1.0 | 0.00 | 0.00 | 0.00 | 66 | 1005.5 |
| 20260504025958 | 60 | 164 | 0.0 | 1.0 | 0.00 | 0.00 | 0.00 | 65 | 1005.7 |
| 20260504025455 | 60 | 106 | 2.0 | 3.0 | 0.00 | 0.00 | 0.00 | 65 | 1005.5 |
| 20260504024952 | 60 | 201 | 2.0 | 3.0 | 0.00 | 0.00 | 0.00 | 64 | 1005.4 |
| 20260504024449 | 60 | 208 | 1.0 | 1.0 | 0.00 | 0.00 | 0.00 | 64 | 1005.3 |
| 20260504023946 | 60 | 242 | 4.0 | 6.0 | 0.00 | 0.00 | 0.00 | 64 | 1005.5 |
| 20260504023443 | 60 | 199 | 1.0 | 1.0 | 0.00 | 0.00 | 0.00 | 64 | 1005.5 |
| 20260504022938 | 60 | 200 | 0.0 | 0.0 | 0.00 | 0.00 | 0.00 | 63 | 1005.6 |
| 20260504022434 | 60 | 210 | 0.0 | 0.0 | 0.00 | 0.00 | 0.00 | 63 | 1005.7 |
| 20260504021926 | 60 | 197 | 0.0 | 0.0 | 0.00 | 0.00 | 0.00 | 63 | 1005.6 |
| 20260504021423 | 60 | 212 | 0.0 | 0.0 | 0.00 | 0.00 | 0.00 | 64 | 1005.4 |
| 20260504020920 | 59 | 208 | 0.0 | 0.0 | 0.00 | 0.00 | 0.00 | 64 | 1005.4 |
| 20260504020417 | 59 | 202 | 0.0 | 0.0 | 0.00 | 0.00 | 0.00 | 64 | 1005.5 |
| 20260504015914 | 59 | 202 | 0.0 | 0.0 | 0.00 | 0.00 | 0.00 | 63 | 1005.4 |
| 20260504015409 | 59 | 201 | 0.0 | 0.0 | 0.00 | 0.00 | 0.00 | 64 | 1005.1 |
| 20260504014905 | 60 | 205 | 0.0 | 0.0 | 0.00 | 0.00 | 0.00 | 64 | 1005.3 |
| 20260504014401 | 60 | 206 | 0.0 | 1.0 | 0.00 | 0.00 | 0.00 | 63 | 1005.3 |
| 20260504013853 | 60 | 214 | 0.0 | 0.0 | 0.00 | 0.00 | 0.00 | 63 | 1005.2 |
| 20260504013351 | 60 | 213 | 0.0 | 0.0 | 0.00 | 0.00 | 0.00 | 62 | 1005.4 |
| 20260504012847 | 60 | 214 | 0.0 | 0.0 | 0.00 | 0.00 | 0.00 | 61 | 1005.3 |
| 20260504012345 | 60 | 214 | 0.0 | 0.0 | 0.00 | 0.00 | 0.00 | 61 | 1004.9 |
| 20260504011843 | 61 | 220 | 0.0 | 0.0 | 0.00 | 0.00 | 0.00 | 60 | 1004.9 |
| 20260504011339 | 62 | 219 | 0.0 | 0.0 | 0.00 | 0.00 | 0.00 | 59 | 1004.9 |
| 20260504010835 | 62 | 200 | 0.0 | 0.0 | 0.00 | 0.00 | 0.00 | 58 | 1004.9 |
| 20260504010331 | 63 | 230 | 0.0 | 0.0 | 0.00 | 0.00 | 0.00 | 58 | 1004.9 |
| 20260504005827 | 63 | 189 | 0.0 | 0.0 | 0.00 | 0.00 | 0.00 | 57 | 1004.8 |
| 20260504005324 | 63 | 202 | 0.0 | 0.0 | 0.00 | 0.00 | 0.00 | 56 | 1004.9 |
| 20260504004822 | 64 | 217 | 0.0 | 0.0 | 0.00 | 0.00 | 0.00 | 55 | 1005.0 |
| 20260504004319 | 64 | 230 | 1.0 | 2.0 | 0.00 | 0.00 | 0.00 | 54 | 1005.0 |
| 20260504003815 | 64 | 220 | 0.0 | 1.0 | 0.00 | 0.00 | 0.00 | 54 | 1004.9 |
| 20260504003312 | 65 | 302 | 4.0 | 5.0 | 0.00 | 0.00 | 0.00 | 54 | 1004.9 |
| 20260504002808 | 65 | 250 | 3.0 | 3.0 | 0.00 | 0.00 | 0.00 | 53 | 1004.8 |
| 20260504002306 | 66 | 206 | 1.0 | 1.0 | 0.00 | 0.00 | 0.00 | 53 | 1004.9 |
| 20260504001804 | 66 | 211 | 2.0 | 3.0 | 0.00 | 0.00 | 0.00 | 52 | 1004.8 |
| 20260504001301 | 66 | 213 | 3.0 | 3.0 | 0.00 | 0.00 | 0.00 | 51 | 1004.9 |
| 20260504000758 | 66 | 266 | 1.0 | 1.0 | 0.00 | 0.00 | 0.00 | 52 | 1004.9 |
| 20260504000254 | 66 | 114 | 1.0 | 2.0 | 0.00 | 0.00 | 0.00 | 51 | 1004.8 |
| 20260503235752 | 66 | 233 | 1.0 | 2.0 | 0.00 | 0.00 | 0.00 | 51 | 1004.8 |
| 20260503235249 | 67 | 234 | 5.0 | 8.0 | 0.00 | 0.00 | 0.00 | 50 | 1004.8 |
| 20260503234747 | 67 | 220 | 3.0 | 3.0 | 0.00 | 0.00 | 0.00 | 50 | 1005.1 |
| 20260503234245 | 67 | 268 | 1.0 | 1.0 | 0.00 | 0.00 | 0.00 | 50 | 1004.5 |
| 20260503233742 | 67 | 259 | 3.0 | 5.0 | 0.00 | 0.00 | 0.00 | 48 | 1004.9 |
| 20260503233237 | 67 | 252 | 2.0 | 3.0 | 0.00 | 0.00 | 0.00 | 48 | 1004.8 |
| 20260503232735 | 68 | 241 | 3.0 | 6.0 | 0.00 | 0.00 | 0.00 | 48 | 1004.8 |
| 20260503232232 | 68 | 251 | 3.0 | 3.0 | 0.00 | 0.00 | 0.00 | 48 | 1004.6 |
| 20260503231730 | 68 | 245 | 1.0 | 2.0 | 0.00 | 0.00 | 0.00 | 48 | 1005.1 |
| 20260503231226 | 68 | 355 | 3.0 | 5.0 | 0.00 | 0.00 | 0.00 | 49 | 1005.0 |
| 20260503230722 | 68 | 311 | 2.0 | 3.0 | 0.00 | 0.00 | 0.00 | 47 | 1004.8 |
| 20260503230220 | 69 | 247 | 4.0 | 6.0 | 0.00 | 0.00 | 0.00 | 47 | 1004.9 |
| 20260503225717 | 69 | 207 | 2.0 | 2.0 | 0.00 | 0.00 | 0.00 | 47 | 1005.0 |
| 20260503225217 | 69 | 221 | 6.0 | 10.0 | 0.00 | 0.00 | 0.00 | 46 | 1004.9 |
| 20260503224715 | 69 | 247 | 2.0 | 3.0 | 0.00 | 0.00 | 0.00 | 47 | 1005.1 |
| 20260503224213 | 68 | 285 | 2.0 | 2.0 | 0.00 | 0.00 | 0.00 | 49 | 1005.0 |
| 20260503223710 | 68 | 249 | 5.0 | 7.0 | 0.00 | 0.00 | 0.00 | 47 | 1005.1 |
| 20260503223207 | 68 | 175 | 2.0 | 2.0 | 0.00 | 0.00 | 0.00 | 48 | 1004.9 |
| 20260503222703 | 68 | 228 | 5.0 | 7.0 | 0.00 | 0.00 | 0.00 | 47 | 1005.2 |
| 20260503222201 | 68 | 273 | 5.0 | 6.0 | 0.00 | 0.00 | 0.00 | 47 | 1005.4 |
| 20260503221659 | 68 | 235 | 0.0 | 1.0 | 0.00 | 0.00 | 0.00 | 48 | 1005.1 |
| 20260503221157 | 68 | 210 | 7.0 | 10.0 | 0.00 | 0.00 | 0.00 | 48 | 1005.2 |
| 20260503220653 | 68 | 218 | 7.0 | 14.0 | 0.00 | 0.00 | 0.00 | 48 | 1005.4 |
| 20260503220150 | 68 | 219 | 6.0 | 10.0 | 0.00 | 0.00 | 0.00 | 47 | 1005.5 |
| 20260503215647 | 68 | 254 | 3.0 | 5.0 | 0.00 | 0.00 | 0.00 | 49 | 1005.5 |
| 20260503215143 | 68 | 200 | 4.0 | 7.0 | 0.00 | 0.00 | 0.00 | 48 | 1005.4 |
| 20260503214642 | 68 | 219 | 5.0 | 6.0 | 0.00 | 0.00 | 0.00 | 47 | 1005.5 |
| 20260503214138 | 67 | 226 | 7.0 | 10.0 | 0.00 | 0.00 | 0.00 | 48 | 1005.6 |
| 20260503213632 | 68 | 192 | 5.0 | 6.0 | 0.00 | 0.00 | 0.00 | 48 | 1005.8 |
| 20260503213128 | 67 | 149 | 5.0 | 8.0 | 0.00 | 0.00 | 0.00 | 46 | 1005.6 |
| 20260503212625 | 67 | 306 | 3.0 | 3.0 | 0.00 | 0.00 | 0.00 | 47 | 1006.0 |
| 20260503212123 | 67 | 123 | 4.0 | 5.0 | 0.00 | 0.00 | 0.00 | 47 | 1006.0 |
| 20260503211620 | 67 | 191 | 5.0 | 7.0 | 0.00 | 0.00 | 0.00 | 47 | 1006.2 |
| 20260503211116 | 67 | 165 | 8.0 | 13.0 | 0.00 | 0.00 | 0.00 | 47 | 1006.1 |
| 20260503210613 | 67 | 249 | 5.0 | 7.0 | 0.00 | 0.00 | 0.00 | 47 | 1006.4 |
| 20260503210109 | 67 | 172 | 6.0 | 8.0 | 0.00 | 0.00 | 0.00 | 47 | 1006.5 |
| 20260503205605 | 67 | 260 | 2.0 | 2.0 | 0.00 | 0.00 | 0.00 | 48 | 1006.2 |
| 20260503205101 | 67 | 279 | 5.0 | 8.0 | 0.00 | 0.00 | 0.00 | 47 | 1006.4 |
| 20260503204558 | 67 | 242 | 4.0 | 6.0 | 0.00 | 0.00 | 0.00 | 47 | 1006.4 |
| 20260503204055 | 65 | 217 | 7.0 | 10.0 | 0.00 | 0.00 | 0.00 | 48 | 1006.5 |
| 20260503203552 | 65 | 269 | 6.0 | 8.0 | 0.00 | 0.00 | 0.00 | 48 | 1006.8 |
| 20260503203049 | 66 | 192 | 4.0 | 7.0 | 0.00 | 0.00 | 0.00 | 48 | 1006.9 |
| 20260503202547 | 66 | 201 | 1.0 | 2.0 | 0.00 | 0.00 | 0.00 | 47 | 1006.9 |
| 20260503202045 | 66 | 217 | 7.0 | 8.0 | 0.00 | 0.00 | 0.00 | 49 | 1007.1 |
| 20260503201543 | 65 | 232 | 4.0 | 6.0 | 0.00 | 0.00 | 0.00 | 53 | 1007.3 |
| 20260503201040 | 64 | 239 | 8.0 | 11.0 | 0.00 | 0.00 | 0.00 | 53 | 1007.3 |
| 20260503200536 | 65 | 300 | 7.0 | 11.0 | 0.00 | 0.00 | 0.00 | 53 | 1007.7 |
| 20260503200033 | 64 | 223 | 4.0 | 6.0 | 0.00 | 0.00 | 0.00 | 56 | 1007.8 |
| 20260503195530 | 64 | 122 | 9.0 | 11.0 | 0.00 | 0.00 | 0.00 | 54 | 1007.8 |
| 20260503195027 | 64 | 102 | 6.0 | 9.0 | 0.00 | 0.00 | 0.00 | 55 | 1007.8 |
| 20260503194525 | 63 | 250 | 10.0 | 10.0 | 0.00 | 0.00 | 0.00 | 55 | 1007.8 |
| 20260503194024 | 64 | 237 | 1.0 | 2.0 | 0.00 | 0.00 | 0.00 | 55 | 1008.0 |
| 20260503193521 | 63 | 208 | 5.0 | 7.0 | 0.00 | 0.00 | 0.00 | 55 | 1007.7 |
| 20260503193016 | 62 | 221 | 7.0 | 9.0 | 0.00 | 0.00 | 0.00 | 55 | 1008.0 |
| 20260503192512 | 63 | 204 | 5.0 | 9.0 | 0.00 | 0.00 | 0.00 | 56 | 1008.0 |
| 20260503192008 | 62 | 288 | 4.0 | 6.0 | 0.00 | 0.00 | 0.00 | 57 | 1008.0 |
| 20260503191505 | 62 | 255 | 3.0 | 3.0 | 0.00 | 0.00 | 0.00 | 56 | 1008.1 |
| 20260503191001 | 61 | 267 | 5.0 | 7.0 | 0.00 | 0.00 | 0.00 | 55 | 1008.1 |
| 20260503190453 | 61 | 235 | 4.0 | 7.0 | 0.00 | 0.00 | 0.00 | 54 | 1008.1 |
| 20260503185950 | 61 | 225 | 7.0 | 10.0 | 0.00 | 0.00 | 0.00 | 55 | 1008.1 |
| 20260503185446 | 61 | 245 | 3.0 | 6.0 | 0.00 | 0.00 | 0.00 | 55 | 1008.0 |
| 20260503184946 | 61 | 243 | 4.0 | 6.0 | 0.00 | 0.00 | 0.00 | 55 | 1008.1 |
| 20260503184443 | 60 | 191 | 6.0 | 8.0 | 0.00 | 0.00 | 0.00 | 56 | 1008.3 |
| 20260503183939 | 60 | 234 | 4.0 | 5.0 | 0.00 | 0.00 | 0.00 | 57 | 1008.0 |
| 20260503183436 | 61 | 198 | 9.0 | 13.0 | 0.00 | 0.00 | 0.00 | 55 | 1008.4 |
| 20260503182933 | 60 | 164 | 8.0 | 9.0 | 0.00 | 0.00 | 0.00 | 56 | 1008.6 |
| 20260503182432 | 60 | 181 | 5.0 | 8.0 | 0.00 | 0.00 | 0.00 | 57 | 1008.6 |
| 20260503181929 | 59 | 233 | 6.0 | 11.0 | 0.00 | 0.00 | 0.00 | 59 | 1008.6 |
| 20260503181426 | 59 | 208 | 11.0 | 20.0 | 0.00 | 0.00 | 0.00 | 57 | 1008.6 |
| 20260503180921 | 58 | 139 | 10.0 | 11.0 | 0.00 | 0.00 | 0.00 | 59 | 1009.1 |
| 20260503180420 | 58 | 219 | 4.0 | 9.0 | 0.00 | 0.00 | 0.00 | 61 | 1009.1 |
| 20260503175916 | 58 | 356 | 7.0 | 9.0 | 0.00 | 0.00 | 0.00 | 60 | 1009.3 |
| 20260503175415 | 59 | 196 | 7.0 | 11.0 | 0.00 | 0.00 | 0.00 | 59 | 1009.5 |
| 20260503174909 | 59 | 246 | 4.0 | 5.0 | 0.00 | 0.00 | 0.00 | 62 | 1009.5 |
| 20260503174409 | 59 | 165 | 6.0 | 8.0 | 0.00 | 0.00 | 0.00 | 60 | 1009.6 |
| 20260503173909 | 60 | 216 | 7.0 | 9.0 | 0.00 | 0.00 | 0.00 | 61 | 1009.8 |
| 20260503173405 | 59 | 260 | 5.0 | 8.0 | 0.00 | 0.00 | 0.00 | 61 | 1009.9 |
| 20260503172902 | 58 | 238 | 5.0 | 6.0 | 0.00 | 0.00 | 0.00 | 63 | 1010.0 |
| 20260503172359 | 59 | 235 | 5.0 | 7.0 | 0.00 | 0.00 | 0.00 | 64 | 1010.2 |
| 20260503171855 | 57 | 150 | 7.0 | 8.0 | 0.00 | 0.00 | 0.00 | 65 | 1010.4 |
| 20260503171352 | 56 | 179 | 4.0 | 7.0 | 0.00 | 0.00 | 0.00 | 66 | 1010.5 |
| 20260503170850 | 58 | 213 | 14.0 | 18.0 | 0.00 | 0.00 | 0.00 | 65 | 1010.7 |
| 20260503170346 | 55 | 222 | 5.0 | 9.0 | 0.00 | 0.00 | 0.00 | 69 | 1010.8 |
| 20260503150738 | 55 | 254 | 3.0 | 6.0 | 0.00 | 0.00 | 0.00 | 63 | 1012.4 |
| 20260503150234 | 56 | 253 | 3.0 | 3.0 | 0.00 | 0.00 | 0.00 | 65 | 1012.2 |
| 20260503140159 | 52 | 304 | 3.0 | 7.0 | 0.00 | 0.00 | 0.00 | 66 | 1012.6 |
| 20260503131128 | 51 | 193 | 2.0 | 3.0 | 0.00 | 0.00 | 0.00 | 62 | 1013.0 |
| 20260503130626 | 51 | 201 | 2.0 | 2.0 | 0.00 | 0.00 | 0.00 | 63 | 1013.0 |
| 20260503130124 | 51 | 185 | 2.0 | 5.0 | 0.00 | 0.00 | 0.00 | 62 | 1013.0 |
| 20260503110510 | 48 | 265 | 4.0 | 6.0 | 0.00 | 0.00 | 0.00 | 63 | 1012.3 |
| 20260503090356 | 47 | 152 | 2.0 | 3.0 | 0.00 | 0.00 | 0.00 | 59 | 1013.3 |
| 20260503081323 | 47 | 225 | 2.0 | 2.0 | 0.00 | 0.00 | 0.00 | 59 | 1013.6 |
| 20260503080820 | 47 | 229 | 2.0 | 3.0 | 0.00 | 0.00 | 0.00 | 58 | 1013.7 |
| 20260503080317 | 46 | 197 | 0.0 | 0.0 | 0.00 | 0.00 | 0.00 | 60 | 1013.7 |
| 20260503072747 | 46 | 211 | 3.0 | 3.0 | 0.00 | 0.00 | 0.00 | 60 | 1013.7 |
| 20260503072244 | 46 | 214 | 1.0 | 1.0 | 0.00 | 0.00 | 0.00 | 61 | 1013.9 |
| 20260503071740 | 45 | 246 | 3.0 | 3.0 | 0.00 | 0.00 | 0.00 | 61 | 1013.7 |
| 20260503071237 | 45 | 252 | 2.0 | 2.0 | 0.00 | 0.00 | 0.00 | 62 | 1014.0 |
| 20260503070734 | 45 | 308 | 1.0 | 2.0 | 0.00 | 0.00 | 0.00 | 62 | 1014.0 |
| 20260503070232 | 45 | 237 | 0.0 | 0.0 | 0.00 | 0.00 | 0.00 | 63 | 1014.0 |
| 20260503060157 | 45 | 241 | 1.0 | 2.0 | 0.00 | 0.00 | 0.00 | 64 | 1014.4 |
| 20260503054644 | 45 | 229 | 1.0 | 2.0 | 0.00 | 0.00 | 0.00 | 63 | 1014.4 |
| 20260503054141 | 45 | 188 | 1.0 | 2.0 | 0.00 | 0.00 | 0.00 | 63 | 1014.8 |
| 20260503053639 | 46 | 195 | 0.0 | 0.0 | 0.00 | 0.00 | 0.00 | 63 | 1014.5 |
| 20260503053138 | 45 | 194 | 0.0 | 1.0 | 0.00 | 0.00 | 0.00 | 62 | 1014.5 |
| 20260503052633 | 45 | 190 | 2.0 | 3.0 | 0.00 | 0.00 | 0.00 | 63 | 1014.8 |
| 20260503052130 | 45 | 222 | 2.0 | 2.0 | 0.00 | 0.00 | 0.00 | 63 | 1014.7 |
| 20260503051625 | 45 | 229 | 0.0 | 1.0 | 0.00 | 0.00 | 0.00 | 63 | 1014.8 |
| 20260503051123 | 46 | 229 | 0.0 | 0.0 | 0.00 | 0.00 | 0.00 | 62 | 1015.0 |
| 20260503050620 | 45 | 231 | 2.0 | 3.0 | 0.00 | 0.00 | 0.00 | 63 | 1014.7 |
| 20260503050116 | 45 | 196 | 4.0 | 5.0 | 0.00 | 0.00 | 0.00 | 63 | 1015.0 |